Starlink 3320

operational
NORAD ID: 50839 Int'l Des: 2022-001 Owner: SPXS Country: US Constellation: starlink
LEOCIRCULAR

Starlink 3320について

説明を読み込み中...

リアルタイム位置

3D地球を読み込み中...

次回通過

高度履歴

Altitude vs Time

uPlot chart will show altitude changes over time

軌道要素

1 50839U 22001AN 25259.67073330 -.00001752 00000-0 -92058-4 0 9997
2 50839 53.2134 240.3249 0001686 90.0031 270.1154 15.08830365203984
Epoch: Sep 16, 2025 • Age: 30 hours

現在のステータス

高度 539.7 km
速度 7.60 km/s
衛星直下点 14.74°N, 86.93°W
打ち上げ日 Jan 6, 2022
運用期間 3.6 years
タイプ internet

技術仕様

分類 Payload
質量 297.00 kg
乾燥質量 275.00 kg
総質量 297.00 kg
長さ 0.20 m
直径 2.80 m
スパン 9.00 m
形状 Box + pan
製造者 SPXS
バスタイプ Starlink
フェーズステータス In Orbit
所有者/国 SPXS/US

大規模コンステレーション

Loading constellations...